Tracking 19909 objects as of 21-Oct-2019
HD Live streaming from Space Station
objects crossing your sky now

DELTA 1 DEB

Track DELTA 1 DEB now!
10-day predictions


NORAD ID: 13573
Int'l Code: 1978-026FL
Perigee: 887.4 km
Apogee: 995.0 km
Inclination: 99.0 °
Period: 103.7 minutes
Semi major axis: 7312 km
RCS: 0.0137 m2 (small)
Launch date: March 5, 1978
Source: United States (US)
Launch site: AIR FORCE WESTERN TEST RANGE (AFWTR)

Note: This is SATELLITE DEBRIS
aabbcc
Your satellite tracking list
Your tracking list is empty




NASA's NSSDC Master Catalog

Two Line Element Set (TLE):
1 13573U 78026FL  19293.22335348  .00000016  00000-0  47721-4 0  9998
2 13573  99.0163 209.8677 0073593  38.8417 117.4772 13.88448900946087
Source of the keplerian elements: AFSPC